Tracking 18856 objects as of 11-Dec-2017
HD Live streaming from Space Station
objects crossing your sky now

INTELSAT 705

Track INTELSAT 705 now!
INTELSAT 705 is classified as:


NORAD ID: 23528
Int'l Code: 1995-013A
Perigee: 36,111.8 km
Apogee: 36,211.8 km
Inclination: 6.2 °
Period: 1,454.9 minutes
Semi major axis: 42532 km
RCS: 12.1482 m2 (large)
Launch date: March 22, 1995
Source: International Telecommunications Satellite Organization (ITSO)
Launch site: AIR FORCE EASTERN TEST RANGE (AFETR)

42 C-band, 24 Ku-band; broadcasting, business services, direct-to-home TV broadcasting, telecommunications, VSATnetworks; Atlantic Ocean region.
aabbcc
Your satellite tracking list
Your tracking list is empty




NASA's NSSDC Master Catalog

Two Line Element Set (TLE):
1 23528U 95013A   17344.91828454 -.00000171 +00000-0 +00000-0 0  9998
2 23528 006.2135 056.7945 0011751 021.4055 085.0817 00.98973069082759
Source of the keplerian elements: AFSPC